Regional Weather Roundup
Issued by NWS

Home | Current Version | Previous Version | Graphics & Text | Print | Product List | Glossary On
Versions: 1 2 3 4 5 6 7 8 9 10 11 12 13 14 15 16 17 18 19 20 21 22 23 24 25 26 27 28 29 30 31 32 33 34 35 36 37 38 39 40 41 42 43 44 45 46 47 48 49 50
000
ASUS45 KPSR 221400
RWRAZ

ARIZONA HOURLY REGIONAL WEATHER ROUNDUP
NATIONAL WEATHER SERVICE PHOENIX AZ
700 AM MST FRI MAY 22 2015

NOTE: FAIR INDICATES FEW OR NO CLOUDS BELOW 12,000 FEET WITH NO
SIGNIFICANT WEATHER AND/OR OBSTRUCTIONS TO VISIBILITY.

AZZ001>003-036-221500-
NORTHWEST ARIZONA

CITY           SKY/WX    TMP DP  RH WIND       PRES   REMARKS
KINGMAN        PTSUNNY   59  32  36 SE7       29.90R
$$

AZZ004>008-015-016-018-221500-
NORTH CENTRAL ARIZONA

CITY           SKY/WX    TMP DP  RH WIND       PRES   REMARKS
GRAND CANYON   SUNNY     38  33  82 CALM      30.02S
WILLIAMS       MOSUNNY   45  34  65 SE7       30.08S
PRESCOTT       MOSUNNY   51  41  68 SE9       29.97S
FLAGSTAFF      NOT AVBL
PAYSON         PTSUNNY   50  27  40 E3        30.02S
$$

AZZ009>014-017-221500-
NORTHEAST ARIZONA

CITY           SKY/WX    TMP DP  RH WIND       PRES   REMARKS
WINSLOW        NOT AVBL
SAINT JOHNS    CLOUDY    54  27  35 NE7       30.02F
WINDOW ROCK    PTSUNNY   45  31  58 NW5       30.08F
$$

AZZ023-221500-
GREATER PHOENIX AREA

CITY           SKY/WX    TMP DP  RH WIND       PRES   REMARKS
PHOENIX        PTSUNNY   68  41  37 SE7       29.88R
GLENDALE       PTSUNNY   70  39  32 S5        29.89R
LUKE AFB       MOSUNNY   70  41  35 SW6       29.87S
DEER VALLEY    MOSUNNY   67  38  34 SE7       29.88S
SCOTTSDALE     PTSUNNY   65  40  39 E3        29.90S
MESA-GATEWAY   PTSUNNY   63  37  39 SE7       29.91R
CHANDLER       PTSUNNY   64  46  52 E5        29.89S
$$

AZZ027-028-221500-
SOUTHWEST MARICOPA COUNTY AND PINAL COUNTY

CITY           SKY/WX    TMP DP  RH WIND       PRES   REMARKS
CASA GRANDE    CLOUDY    64  39  39 SE3       29.90R
GILA BEND      CLOUDY    64  40  40 SW9       29.89R HAZE
$$

AZZ503-504-507>509-221500-
SOUTHEAST ARIZONA

CITY           SKY/WX    TMP DP  RH WIND       PRES   REMARKS
TUCSON         SUNNY     62  26  25 SE9       29.97R
DAVIS-MONTHAN  PTSUNNY   62  27  26 S8        29.95R
RYAN FIELD       N/A     63  32  31 SE6       29.96R
NOGALES        SUNNY     57  24  28 CALM      30.01R
SIERRA VISTA   SUNNY     60  20  20 S9        30.03R
SAFFORD        MOSUNNY   62  32  32 SE7       29.96R
$$

AZZ020-021-025-026-031-221500-
SOUTHWEST ARIZONA

CITY           SKY/WX    TMP DP  RH WIND       PRES   REMARKS
YUMA           NOT AVBL
$$

CAZ031-033-041-043-047-048-061-221500-
SOUTHERN CALIFORNIA

CITY           SKY/WX    TMP DP  RH WIND       PRES   REMARKS
DOWNTOWN L.A.  CLOUDY    58  51  78 CALM      29.99R
L.A. AIRPORT   PTSUNNY   57  52  83 W16       30.00R
SAN DIEGO      PTSUNNY   62  51  67 W8        30.04R
BURBANK        CLOUDY    57  49  74 CALM      29.98R
ONTARIO        CLOUDY    56  49  77 W5        29.99R
RIVERSIDE      CLOUDY    57  48  72 W7        30.00R
PALM SPRINGS   PTSUNNY   64  43  46 S7        29.89R
EL CENTRO NAS  MOSUNNY   64  42  44 SW24      29.94R
IMPERIAL       SUNNY     63  43  48 W21G30    29.91R
BLYTHE         SUNNY     62  45  53 S12       29.87R
$$

NVZ020-UTZ003-221500-
SOUTHERN NEVADA-UTAH

CITY           SKY/WX    TMP DP  RH WIND       PRES   REMARKS
LAS VEGAS      NOT AVBL
SALT LAKE CITY PTSUNNY   53  45  74 S7        29.91S
$$

NMZ009-TXZ055-221500-
NEW MEXICO-WEST TEXAS

CITY           SKY/WX    TMP DP  RH WIND       PRES   REMARKS
ALBUQUERQUE    PTSUNNY   53  44  71 CALM      30.12S
EL PASO        CLOUDY    60  53  77 NE3       30.08R
$$


........................KEY........................
SKY/WX - SKY CONDITION/WEATHER
TMP    - TEMPERATURE IN FAHRENHEIT
DP     - DEW POINT IN FAHRENHEIT
RH     - RELATIVE HUMIDITY IN PERCENT
WIND   - DIRECTION AND SPEED IN MILES PER HOUR (MPH)
VRB    - VARIABLE WIND DIRECTION
PRES   - MEAN SEA LEVEL PRESSURE IN INCHES OF MERCURY
         F - FALLING PRESSURE   R - RISING PRESSURE
         S - STEADY PRESSURE
VSB    - VISIBILITY IN MILES
HX     - HEAT INDEX IN FAHRENHEIT
WCI    - WIND CHILL INDEX IN FAHRENHEIT
TC     - TEMPERATURE IN CELSIUS WHICH IS ALSO KNOWN AS
         TEMPERATURE IN CENTIGRADE
AFB    - AIR FORCE BASE
         LUKE AFB IS LUKE AIR FORCE BASE
         DAVIS-MONTHAN IS DAVIS-MONTHAN AIR FORCE BASE
NAS    - NAVAL AIR STATION
         EL CENTRO NAS IS EL CENTRO NAVAL AIR STATION
N/A    - NOT AVAILABLE



USA.gov is the U.S. government's official web portal to all federal, state and local government web resources and services.